Starlink 31575

operational
NORAD ID: 59471 Int'l Des: 2024-068 Owner: SPXS Country: US Constellation: starlink
LEOCIRCULAR

About Starlink 31575

Description loading...

Live Position

Loading 3D Globe...

Upcoming Passes

Altitude History

Altitude vs Time

uPlot chart will show altitude changes over time

Two-Line Element Set

1 59471U 24068S 25351.69711528 -.00000543 00000-0 -10222-4 0 9996
2 59471 42.9990 134.0531 0001285 275.7685 84.3020 15.27578066 96025
Epoch: Dec 17, 2025 • Age: 15 hours

Current Status

Altitude 495.3 km
Velocity 7.62 km/s
Sub-Earth Point -42.72°S, 157.75°W
Launch Date Apr 10, 2024
Age 1.6 years
Type internet

Technical Details

Classification Payload
Mass 730.00 kg
Dry Mass 700.00 kg
Total Mass 730.00 kg
Length 0.30 m
Diameter 4.10 m
Span 29.00 m
Shape Box + pan
Manufacturer SPXS
Bus Type Starlink V2M
Phase Status In Orbit
Owner/State SPXS/US

Large Constellations

Loading constellations...